Total_Precipitation_Accumulation
0.12 0.32 0.72 1.13 2.11 2.31 1.55 0.87 0.68 0.59 0.56 0.58 0.58 0.56 0.66 0.88 1.30 2.23 2.13 1.62 1.49 1.79 2.40 3.20 3.54 2.93 2.56 2.52 2.41 2.53 2.51 2.44 2.68 2.86 2.76 2.58 2.57 2.84 2.93 2.91 2.99 3.15 3.09 2.69 2.50 2.24 1.94 1.91 1.95
0.27 0.53 0.97 1.59 2.35 1.93 1.38 0.71 0.51 0.48 0.45 0.51 0.53 0.45 0.46 0.56 0.57 0.99 1.46 1.59 1.45 1.51 1.85 2.39 2.83 2.48 2.31 2.25 2.32 2.41 2.40 2.37 2.53 2.62 2.71 2.69 2.65 2.88 3.07 2.99 3.10 3.27 3.00 2.65 2.40 2.13 1.80 1.68 1.73
0.47 0.75 1.27 1.97 1.61 1.11 0.91 0.52 0.42 0.45 0.56 0.72 0.79 0.54 0.54 0.80 0.74 0.98 1.18 1.20 1.27 1.42 1.66 2.08 2.25 2.20 2.16 2.14 2.32 2.45 2.45 2.38 2.48 2.62 2.71 2.82 2.91 2.98 3.16 3.13 3.23 3.29 3.16 2.78 2.40 2.14 1.81 1.67 1.66
0.61 1.00 1.37 1.52 0.82 0.47 0.46 0.35 0.39 0.50 0.80 0.94 0.92 0.80 0.74 0.81 0.78 0.90 0.88 0.92 1.18 1.47 1.69 1.91 2.03 2.00 2.10 2.11 2.34 2.51 2.59 2.47 2.49 2.67 2.66 2.75 2.98 3.19 3.42 3.40 3.38 3.39 3.20 2.76 2.40 2.12 1.86 1.69 1.66
0.66 1.13 1.62 1.15 0.43 0.28 0.25 0.22 0.27 0.43 0.72 0.98 0.94 1.07 1.18 1.13 0.88 0.81 0.79 0.93 1.12 1.40 1.74 1.88 2.02 2.05 2.23 2.40 2.56 2.64 2.62 2.47 2.45 2.52 2.43 2.54 2.98 3.29 3.46 3.51 3.48 3.38 3.15 2.74 2.38 2.10 1.87 1.74 1.77
0.85 1.40 1.24 0.67 0.38 0.24 0.21 0.19 0.28 0.48 0.71 0.94 1.08 1.24 1.36 1.27 1.00 0.89 0.87 1.05 1.17 1.26 1.63 1.86 2.18 2.26 2.32 2.51 2.84 2.94 2.69 2.55 2.48 2.51 2.39 2.45 2.72 3.13 3.35 3.56 3.60 3.39 3.12 2.65 2.37 2.11 1.88 1.83 1.88
0.81 1.03 0.73 0.41 0.30 0.23 0.22 0.24 0.33 0.49 0.60 0.90 1.20 1.38 1.39 1.46 1.23 1.03 1.13 1.20 1.50 1.31 1.45 1.75 2.16 2.40 2.51 2.59 2.81 2.90 2.86 2.78 2.71 2.68 2.50 2.53 2.71 2.95 3.25 3.59 3.53 3.36 3.16 2.76 2.44 2.19 1.99 1.96 1.92
0.50 0.56 0.40 0.27 0.19 0.18 0.19 0.23 0.33 0.46 0.74 1.00 1.08 1.34 1.52 1.38 1.34 1.32 1.43 1.45 1.64 1.59 1.47 1.59 1.92 2.34 2.48 2.50 2.71 2.89 2.84 2.82 2.83 2.85 2.71 2.88 3.02 3.04 3.18 3.47 3.60 3.40 3.14 2.79 2.61 2.38 2.21 2.17 1.98
0.36 0.51 0.38 0.21 0.12 0.15 0.19 0.27 0.34 0.40 0.60 0.81 0.97 1.03 0.95 1.07 1.35 1.41 1.58 1.77 1.84 1.83 1.82 1.84 1.81 1.92 2.14 2.26 2.54 3.10 3.09 2.98 2.99 3.17 3.27 3.44 3.73 3.68 3.73 3.62 3.80 3.75 3.45 3.28 3.08 2.85 2.52 2.40 2.14
0.31 0.37 0.21 0.11 0.07 0.10 0.15 0.24 0.37 0.48 0.79 1.19 1.27 1.38 1.19 1.28 1.46 1.46 1.53 1.63 1.80 1.95 1.99 2.23 2.03 1.91 2.02 2.08 2.88 3.75 3.61 3.43 3.45 3.63 3.69 3.98 4.12 4.41 3.86 4.14 4.44 4.54 4.44 4.32 4.09 3.95 3.28 2.55 2.15
0.10 0.12 0.09 0.07 0.05 0.05 0.08 0.17 0.21 0.44 0.94 1.42 1.52 1.61 1.52 1.52 1.59 1.64 1.75 1.88 2.03 2.23 2.10 2.08 2.19 2.30 2.34 2.50 2.88 3.37 3.80 3.84 3.83 3.78 3.76 4.01 3.92 4.07 4.07 4.51 5.28 5.39 4.88 4.54 4.67 4.47 3.54 3.01 3.04
0.06 0.06 0.07 0.06 0.05 0.05 0.08 0.16 0.26 0.46 1.01 1.35 1.21 1.16 1.31 1.56 1.70 1.83 2.22 2.50 2.73 2.82 2.78 2.80 2.78 2.82 2.87 2.75 2.76 2.89 3.16 3.24 3.22 3.36 3.45 3.60 3.95 4.09 4.25 4.61 4.70 4.79 4.60 4.87 4.80 4.65 4.02 3.64 3.29
0.06 0.05 0.06 0.06 0.05 0.06 0.11 0.20 0.34 0.52 0.87 0.96 0.87 0.93 1.41 1.67 1.85 2.20 2.45 2.71 2.97 3.32 3.51 4.12 4.07 3.59 3.35 3.16 3.02 2.74 2.95 2.79 2.61 2.79 3.11 3.23 3.49 3.84 4.04 3.93 3.97 3.73 3.94 4.31 4.48 4.08 4.12 3.90 3.76
0.05 0.06 0.08 0.10 0.08 0.09 0.14 0.21 0.51 0.63 0.74 0.85 0.88 1.19 1.67 2.17 2.32 2.61 2.94 3.36 3.63 4.05 4.10 4.37 4.92 4.34 3.75 3.29 3.15 2.97 2.76 2.82 2.69 2.79 2.74 3.04 3.25 3.39 3.53 3.47 3.60 3.47 3.60 3.77 3.77 3.76 4.13 4.08 3.89
0.08 0.12 0.19 0.18 0.14 0.15 0.21 0.44 0.70 0.78 0.76 1.03 1.15 1.41 1.99 2.68 2.63 2.92 3.26 3.75 4.14 4.58 4.75 4.87 5.20 4.94 4.53 4.00 3.50 3.08 2.87 2.69 2.76 2.88 2.66 2.76 2.99 3.11 3.15 3.22 3.23 3.30 3.23 3.31 3.31 3.40 3.74 3.85 3.74
0.10 0.21 0.35 0.27 0.17 0.19 0.30 0.85 0.99 0.83 0.81 1.13 1.38 1.64 2.17 2.89 2.94 3.22 3.70 4.21 4.84 5.25 5.52 5.56 5.30 5.37 5.11 4.55 4.03 3.61 3.39 3.14 2.94 2.78 2.65 2.46 2.56 2.60 2.76 2.73 2.72 2.81 2.80 2.92 3.17 3.20 3.46 3.74 3.82
0.17 0.22 0.32 0.31 0.23 0.21 0.31 0.83 0.87 0.63 0.82 1.11 1.44 1.78 2.16 2.52 3.03 3.61 4.09 4.63 5.49 6.40 6.85 6.63 5.98 5.65 5.26 4.81 4.40 4.26 4.10 3.77 3.34 3.11 2.90 2.73 2.51 2.44 2.56 2.68 2.76 2.45 2.54 2.72 2.62 3.05 3.34 3.66 3.71
0.12 0.16 0.25 0.34 0.27 0.31 0.42 0.53 0.66 0.72 0.95 1.17 1.40 1.61 1.98 2.28 2.68 3.40 3.99 4.62 5.53 6.69 7.41 7.32 6.66 5.89 5.27 5.01 4.71 4.66 4.39 3.96 3.48 3.31 3.18 2.84 2.69 2.48 2.59 2.49 2.35 2.14 2.38 2.77 2.94 3.42 3.47 3.43 3.43
0.08 0.13 0.22 0.30 0.25 0.35 0.46 0.55 0.69 0.86 1.11 1.19 1.31 1.45 1.73 2.05 2.46 3.20 3.87 4.36 4.97 5.72 6.27 6.17 5.56 5.12 4.68 4.26 3.79 3.81 3.70 3.47 3.25 3.06 2.85 2.82 2.74 2.59 2.67 2.45 2.55 2.27 2.37 2.53 2.67 3.03 3.23 3.21 3.19
0.07 0.12 0.20 0.25 0.21 0.23 0.40 0.67 0.82 0.88 1.07 1.07 1.10 1.20 1.44 1.84 2.50 3.28 3.86 3.98 3.96 4.22 4.44 3.94 3.76 3.79 3.51 3.36 3.37 3.32 3.21 2.92 2.78 2.81 3.02 2.67 2.66 2.56 2.40 2.61 2.40 2.37 2.62 2.66 2.80 3.07 3.20 3.17 3.22
0.10 0.12 0.15 0.23 0.24 0.30 0.48 0.91 1.08 0.98 1.01 0.91 0.92 1.17 1.68 2.13 2.56 3.08 3.24 3.22 3.06 2.99 2.97 2.75 2.71 3.04 3.08 3.17 3.25 3.27 3.25 3.08 2.90 2.74 2.90 2.58 2.41 2.44 2.53 2.47 2.53 2.69 2.38 2.65 2.87 2.91 3.16 3.28 3.16
0.10 0.08 0.07 0.10 0.19 0.44 0.62 1.13 1.33 1.22 1.17 0.93 1.00 1.40 1.92 2.27 2.52 2.56 2.13 1.94 2.02 2.10 2.21 2.47 2.56 2.72 2.70 2.88 2.86 2.80 2.59 2.48 2.43 2.41 2.58 2.68 2.44 2.32 2.34 2.45 2.78 2.91 2.63 2.86 2.43 2.62 2.99 3.22 3.14
0.06 0.06 0.05 0.09 0.20 0.48 0.78 1.24 1.52 1.39 1.16 0.93 0.91 0.99 1.39 1.56 1.56 1.49 1.37 1.37 1.54 1.80 2.03 2.36 2.48 2.53 2.48 2.49 2.63 2.84 2.77 2.78 2.67 2.61 2.88 2.92 2.93 2.66 2.33 2.37 2.68 2.86 2.85 2.95 2.77 3.00 2.82 2.77 2.79
0.06 0.08 0.15 0.26 0.43 0.93 1.02 1.13 1.44 1.33 1.10 0.96 0.83 0.76 0.98 1.02 0.89 0.99 1.11 1.33 1.57 1.72 1.81 2.04 2.19 2.39 2.42 2.48 2.60 2.65 2.72 2.90 2.89 2.88 2.76 2.62 2.71 2.65 2.43 2.43 2.78 2.82 2.83 3.00 2.88 2.86 2.71 2.73 2.76
0.06 0.10 0.33 0.71 1.00 1.17 0.88 1.01 1.34 1.01 0.81 0.71 0.60 0.57 0.64 0.68 0.74 0.92 1.06 1.27 1.37 1.46 1.50 1.68 1.76 1.96 2.15 2.28 2.37 2.46 2.60 2.75 2.74 2.83 2.78 2.66 2.44 2.32 2.42 2.58 2.92 2.87 2.86 2.82 2.89 2.80 2.80 2.88 2.91
0.05 0.07 0.17 0.31 0.44 0.64 0.82 1.25 1.34 0.93 0.62 0.48 0.45 0.46 0.48 0.55 0.66 0.75 0.90 0.98 1.08 1.26 1.49 1.68 1.66 1.66 1.72 1.83 2.06 2.22 2.24 2.36 2.42 2.75 2.65 2.61 2.47 2.32 2.43 2.59 2.57 2.56 2.64 2.51 2.79 2.60 2.60 2.77 2.81
0.05 0.05 0.06 0.09 0.16 0.42 0.89 1.18 1.12 0.78 0.60 0.56 0.56 0.57 0.56 0.58 0.70 0.71 0.76 0.94 1.02 0.96 1.07 1.30 1.44 1.52 1.58 1.63 1.85 1.88 1.86 1.98 2.21 2.29 2.17 2.04 2.15 2.26 2.39 2.42 2.49 2.52 2.52 2.56 2.78 2.69 2.72 2.91 2.73
0.05 0.05 0.05 0.08 0.17 0.33 0.73 1.24 1.48 1.17 0.85 0.69 0.74 0.66 0.59 0.55 0.61 0.74 0.79 0.86 0.90 0.86 1.01 1.17 1.31 1.43 1.49 1.51 1.60 1.49 1.61 1.72 1.94 2.05 2.05 1.95 1.91 2.10 2.25 2.31 2.41 2.48 2.45 2.54 2.71 2.56 2.74 2.83 2.73
0.06 0.06 0.07 0.10 0.12 0.22 0.53 0.86 0.91 1.01 0.87 0.66 0.69 0.64 0.59 0.54 0.57 0.70 0.73 0.81 0.80 0.78 0.90 1.07 1.28 1.36 1.28 1.32 1.37 1.49 1.61 1.79 1.87 1.86 1.90 1.93 1.95 2.09 2.20 2.30 2.37 2.39 2.44 2.59 2.68 2.51 2.66 2.66 2.77
0.08 0.09 0.10 0.12 0.13 0.15 0.28 0.48 0.52 0.60 0.72 0.93 0.89 0.72 0.71 0.73 0.68 0.72 0.75 0.79 0.76 0.75 0.82 0.94 1.13 1.29 1.34 1.36 1.46 1.61 1.71 1.82 1.89 1.81 1.90 2.10 2.13 2.17 2.26 2.36 2.45 2.35 2.44 2.59 2.54 2.52 2.58 2.63 2.62